This is the latest recevied weather packets stored in our database for station/object TF3VP-10. If no packets are shown the sender has not sent any weather packets the latest 10 day(s).
| Time | Temp. | Humidity | Pressure | Rain* | Wind** | Luminosity | Snow |
|---|---|---|---|---|---|---|---|
| 1778095248 | 3.33° C | 48% | 1035.4 hPa | - | - | - | - |
| 1778094348 | 3.89° C | 48% | 1035.5 hPa | - | - | - | - |
| 1778093448 | 4.44° C | 47% | 1035.4 hPa | - | - | - | - |
| 1778092550 | 4.44° C | 43% | 1035.4 hPa | - | - | - | - |
| 1778091649 | 4.44° C | 44% | 1035.7 hPa | - | - | - | - |
| 1778090749 | 4.44° C | 45% | 1035.5 hPa | - | - | - | - |
| 1778089849 | 4.44° C | 45% | 1035.5 hPa | - | - | - | - |
| 1778088948 | 4.44° C | 47% | 1035.4 hPa | - | - | - | - |
| 1778088048 | 4.44° C | 46% | 1035.6 hPa | - | - | - | - |
| 1778087148 | 4.44° C | 47% | 1035.7 hPa | - | - | - | - |
| 1778086248 | 4.44° C | 46% | 1035.6 hPa | - | - | - | - |
| 1778085348 | 4.44° C | 47% | 1035.6 hPa | - | - | - | - |
| 1778084448 | 4.44° C | 49% | 1035.7 hPa | - | - | - | - |
| 1778083548 | 4.44° C | 46% | 1035.7 hPa | - | - | - | - |
| 1778082649 | 4.44° C | 45% | 1035.8 hPa | - | - | - | - |
| 1778081748 | 4.44° C | 45% | 1035.8 hPa | - | - | - | - |
| 1778080848 | 5° C | 44% | 1035.8 hPa | - | - | - | - |
| 1778079948 | 5° C | 40% | 1036 hPa | - | - | - | - |
| 1778079049 | 5° C | 41% | 1036.1 hPa | - | - | - | - |
| 1778078148 | 5° C | 41% | 1036.2 hPa | - | - | - | - |
| 1778077249 | 5.56° C | 41% | 1036.1 hPa | - | - | - | - |
| 1778076348 | 6.11° C | 39% | 1036.3 hPa | - | - | - | - |
| 1778075448 | 5.56° C | 36% | 1036.3 hPa | - | - | - | - |
| 1778074548 | 5° C | 41% | 1036.4 hPa | - | - | - | - |
| 1778073648 | 5° C | 42% | 1036.3 hPa | - | - | - | - |
* Rain since midnight (hover to see other rain measurements)
** Current wind speed in m/s (hover to see current wind gust speed)